Morrisville, VT

11:00 AM EDT on April 23, 2017 (GMT -0400)
Morrisville Stowe State

Weather History for KMVL - September, 2014

Change the Weather History Date:

Wednesday, September 3, 2014

  Actual Average Record
Temperature  
Mean Temperature 65 °F 62 °F  
Max Temperature 78 °F 74 °F 91 °F (2010)
Min Temperature 52 °F 50 °F 42 °F (2001)
Degree Days  
Heating Degree Days 0 4  
Month to date heating degree days 0 12  
Since 1 July heating degree days 71 107  
Cooling Degree Days 0 1  
Month to date cooling degree days 16 3  
Year to date cooling degree days 230 250  
Growing Degree Days 16 (Base 50)    
Moisture  
Dew Point 57 °F    
Average Humidity 68    
Maximum Humidity 93    
Minimum Humidity 42    
Precipitation  
Precipitation T in 0.10 in 0.40 in (2006)
Month to date precipitation 1.38 0.28  
Year to date precipitation 27.79 24.04  
Sea Level Pressure  
Sea Level Pressure 29.94 in    
Wind  
Wind Speed 4 mph (WNW)    
Max Wind Speed 13 mph    
Max Gust Speed 18 mph    
Visibility 10 miles    
Events Rain    
T = Trace of Precipitation, MM = Missing Value Source: NWS Daily Summary

Daily Weather History Graph

Daily Weather History Graph

Search for Another Location

Airport or City:

Trip Planner

Search our weather history database for the weather conditions in past years. The results will help you decide how hot, cold, wet, or windy it might be!

Date:

Astronomy

Sep. 03, 2014 Rise Set
Actual Time 6:15 AM EDT 7:23 PM EDT
Civil Twilight 5:45 AM EDT 7:53 PM EDT
Nautical Twilight 5:09 AM EDT 8:28 PM EDT
Astronomical Twilight 4:31 AM EDT 9:06 PM EDT
Moon 3:10 PM EDT (9/3) No Moon Set
Length of Visible Light 14h 07m
Length of Day
13h 08m
Waxing Gibbous, 63% of the Moon is Illuminated
Sep 3
Waxing Gibbous
Sep 8
Full
Sep 15
Last Quarter
Sep 24
New
Oct 1
First Quarter

Hourly Weather History & Observations

Time (EDT) Temp. Dew Point Humidity Pressure Visibility Wind Dir Wind Speed Gust Speed Precip Events Conditions
12:54 AM 64.0 °F 62.1 °F 93% 29.79 in 10.0 mi Calm Calm - 0.00 in Rain Light Rain
1:08 AM 64.0 °F 62.1 °F 93% 29.80 in 10.0 mi Calm Calm - 0.00 in Rain Light Rain
1:28 AM 64.0 °F 62.1 °F 93% 29.81 in 10.0 mi Calm Calm - 0.00 in   Overcast
1:54 AM 64.0 °F 61.0 °F 90% 29.81 in 10.0 mi North 3.5 mph - 0.00 in   Mostly Cloudy
2:02 AM 64.0 °F 61.0 °F 90% 29.81 in 10.0 mi NNW 3.5 mph - N/A   Scattered Clouds
2:54 AM 63.0 °F 60.1 °F 90% 29.81 in 10.0 mi Calm Calm - N/A   Mostly Cloudy
3:54 AM 63.0 °F 61.0 °F 93% 29.82 in 10.0 mi South 3.5 mph - N/A   Overcast
4:54 AM 63.0 °F 59.0 °F 87% 29.83 in 10.0 mi Calm Calm - N/A   Partly Cloudy
5:54 AM 64.0 °F 57.9 °F 80% 29.86 in 10.0 mi Variable 5.8 mph 17.3 mph N/A   Clear
6:54 AM 66.0 °F 57.9 °F 75% 29.89 in 10.0 mi NW 6.9 mph - N/A   Partly Cloudy
7:54 AM 66.9 °F 57.9 °F 73% 29.92 in 10.0 mi Variable 3.5 mph - N/A   Overcast
8:54 AM 68.0 °F 59.0 °F 73% 29.94 in 10.0 mi Variable 5.8 mph - N/A   Mostly Cloudy
9:54 AM 70.0 °F 59.0 °F 68% 29.96 in 10.0 mi Variable 4.6 mph - N/A   Mostly Cloudy
10:54 AM 72.0 °F 57.9 °F 61% 29.97 in 10.0 mi Variable 4.6 mph - N/A   Clear
11:54 AM 73.0 °F 55.9 °F 55% 29.97 in 10.0 mi Variable 3.5 mph - N/A   Scattered Clouds
12:54 PM 73.9 °F 55.0 °F 52% 29.97 in 10.0 mi Variable 4.6 mph - N/A   Partly Cloudy
1:54 PM 75.9 °F 53.1 °F 45% 29.97 in 10.0 mi West 9.2 mph 18.4 mph N/A   Partly Cloudy
2:54 PM 78.1 °F 53.1 °F 42% 29.98 in 10.0 mi NW 10.4 mph - N/A   Mostly Cloudy
3:54 PM 77.0 °F 53.1 °F 43% 29.99 in 10.0 mi NNW 6.9 mph - N/A   Partly Cloudy
4:54 PM 75.9 °F 51.1 °F 42% 30.00 in 10.0 mi Variable 4.6 mph - N/A   Partly Cloudy
5:54 PM 73.9 °F 53.1 °F 48% 30.02 in 10.0 mi NW 4.6 mph - N/A   Clear
6:54 PM 68.0 °F 52.0 °F 56% 30.05 in 10.0 mi WNW 5.8 mph - N/A   Clear
7:54 PM 63.0 °F 54.0 °F 72% 30.07 in 10.0 mi South 3.5 mph - N/A   Clear
8:54 PM 57.9 °F 54.0 °F 87% 30.09 in 10.0 mi Calm Calm - N/A   Clear
9:54 PM 57.0 °F 54.0 °F 89% 30.10 in 10.0 mi Calm Calm - N/A   Clear
10:54 PM 55.9 °F 53.1 °F 90% 30.11 in 10.0 mi Calm Calm - N/A   Clear
11:54 PM 54.0 °F 51.1 °F 90% 30.12 in 10.0 mi Calm Calm - N/A   Clear